Location: Cambier River Bend Area
(42.8000°N, 93.6391°W)
Time: 01:48:14
(UTC+00:00)

ARIANE 6 FM1 Upper Stage - Visible Passes

Search period start: 06 October 2024 00:00
Search period end: 16 October 2024 00:00
Orbit: 564 x 594 km, 62.0° (Epoch: 05 October)

Date Brightness Start Highest point End Pass type
(mag) Time Alt. Az. Time Alt. Az. Time Alt. Az.
11 Oct 5.5 02:17:34 10° N 02:17:44 10° N 02:17:44 10° N visible
12 Oct 5.5 02:21:26 10° N 02:21:53 12° N 02:21:53 12° N visible
13 Oct 5.5 02:25:26 10° NNW 02:26:02 13° N 02:26:02 13° N visible
14 Oct 5.4 02:29:28 10° NNW 02:30:12 14° NNW 02:30:12 14° NNW visible
15 Oct 5.0 00:55:56 10° N 00:57:35 12° NNE 00:58:07 12° NE visible
15 Oct 5.4 02:33:36 10° NNW 02:34:24 15° NNW 02:34:24 15° NNW visible
